Voltar ao catálogo

COSMOS 2251 DEB

AtivoLEO
NORAD 34139·DEBRIS·🇷🇺 Russia

Lançado Jun 16, 1993 de Plesetsk Cosmodrome

Loading…

Próximas Passagens (próximas 24 horas)

TLE

AtualizadoSource: Space-Track

Época: Sep 14, 2026, 22:44 UTC

1 34139U 93036LL  26257.94776551  .00003893  00000-0  76585-3 0  9994
2 34139  74.0276  85.8994 0041238  91.8121  59.6761 14.62398513921830

Acompanhe COSMOS 2251 DEB em tempo real com AllMySat

Download on the App Store